CST,Max TemperatureF,Mean TemperatureF,Min TemperatureF,Max Dew PointF,MeanDew PointF,Min DewpointF,Max Humidity, Mean Humidity, Min Humidity, Max Sea Level PressureIn, Mean Sea Level PressureIn, Min Sea Level PressureIn, Max VisibilityMiles, Mean VisibilityMiles, Min VisibilityMiles, Max Wind SpeedMPH, Mean Wind SpeedMPH, Max Gust SpeedMPH,PrecipitationIn, CloudCover, Events, WindDirDegrees
2014-1-1,60,47,33,53,44,32,100,79,57,30.32,30.16,30.02,10,9,2,10,5,14,0.16,4,Rain,155
2014-1-2,56,44,32,54,41,22,100,75,49,30.45,30.15,29.98,10,8,2,22,11,32,0.15,5,Rain-Snow,300
2014-1-3,42,32,22,21,18,13,75,52,29,30.55,30.44,30.30,10,10,10,15,7,21,0.00,0,,62
2014-1-4,60,40,19,44,31,18,84,60,36,30.31,30.17,30.03,10,10,10,16,9,21,0.00,1,,153
2014-1-5,66,48,29,57,44,19,93,80,67,30.35,29.98,29.81,10,8,2,23,13,35,0.19,8,Rain,258
2014-1-6,29,24,19,18,8,1,69,51,33,30.66,30.56,30.37,10,10,10,22,11,29,T,2,Snow,335
2014-1-7,33,23,12,15,7,1,77,55,32,30.73,30.62,30.53,10,10,10,15,4,19,0.00,0,,105
2014-1-8,49,32,15,23,16,10,84,54,23,30.53,30.44,30.36,10,10,10,15,6,18,0.00,4,,128
2014-1-9,65,53,40,43,33,23,66,52,38,30.36,30.29,30.22,10,10,10,17,7,19,0.00,7,,127
2014-1-10,68,56,43,64,54,40,93,78,63,30.20,29.96,29.76,10,8,1,20,10,28,1.16,6,Rain,160
2014-1-11,66,50,34,64,46,31,93,62,30,30.11,29.94,29.76,10,9,2,23,9,32,0.13,2,Rain,274
2014-1-12,69,50,31,39,35,28,100,62,24,30.21,30.12,30.03,10,10,10,14,6,17,T,0,,167
2014-1-13,65,57,48,59,51,37,93,72,51,30.05,29.94,29.83,10,10,3,17,7,22,0.47,6,Rain,207
2014-1-14,65,48,30,40,35,30,100,64,28,30.15,30.09,30.05,10,10,5,17,5,23,0.00,0,,242
2014-1-15,51,38,24,37,22,15,84,55,26,30.32,30.24,30.17,10,10,10,20,8,30,T,1,Rain,329
2014-1-16,63,44,25,35,28,22,88,59,29,30.19,30.10,30.01,10,10,7,16,7,26,0.00,0,,207
2014-1-17,52,38,24,33,19,6,81,49,16,30.29,30.21,30.08,10,10,10,21,9,29,0.00,0,,299
2014-1-18,60,40,20,41,24,12,92,55,18,30.30,30.18,30.06,10,10,10,17,8,28,0.00,0,,204
2014-1-19,59,44,29,41,29,24,92,60,28,30.30,30.19,30.09,10,10,10,10,5,15,0.00,0,,267
2014-1-20,70,49,27,44,35,27,92,59,26,30.14,30.04,29.94,10,10,10,12,5,18,0.00,0,,198
2014-1-21,56,42,27,47,23,14,77,54,30,30.30,30.20,29.97,10,10,10,22,11,34,0.00,0,,350
2014-1-22,51,34,17,29,20,14,92,60,27,30.30,30.24,30.17,10,10,10,8,3,11,0.00,0,,118
2014-1-23,45,35,25,28,17,4,92,63,34,30.76,30.52,30.25,10,10,5,23,12,29,T,5,Snow,26
2014-1-24,36,27,17,14,5,0,68,46,23,30.74,30.59,30.34,10,10,10,17,7,22,0.00,2,,16
2014-1-25,57,40,23,27,20,12,74,51,27,30.31,30.16,30.05,10,10,10,10,6,18,0.00,0,,218
2014-1-26,63,46,29,42,36,29,82,59,36,30.02,29.89,29.84,10,10,10,15,6,20,0.00,3,,167
2014-1-27,51,39,27,48,28,5,100,63,25,30.31,30.06,29.87,10,8,0,28,15,39,0.00,3,Fog,4
2014-1-28,28,25,21,12,5,-1,55,46,36,30.49,30.40,30.30,10,10,5,23,15,32,T,5,Snow,15
2014-1-29,37,24,10,9,3,0,84,54,24,30.55,30.47,30.39,10,10,10,12,5,14,0.00,0,,29
2014-1-30,50,30,9,20,10,3,84,50,15,30.37,30.24,30.11,10,10,10,14,7,19,0.00,0,,168
2014-1-31,65,48,30,46,39,21,80,66,52,30.17,30.09,30.03,10,10,10,21,11,28,0.00,5,,151